User: anonymous   Login
Location: Bacea
(45.9500°N, 22.6667°E)
Time: 03:33:28
(UTC+00:00)
Language:

Resurs 01 Rocket - Orbit

View from above orbital plane
View from above orbital plane
View from above satellite
View from above satellite

Ground track
Ground track

The orbit data is extracted from the following two-line orbital elements,

1 23343U 94074B   22017.59711605  .00000172  00000-0  31576-4 0  9991
2 23343  97.9174  73.6057 0008249  85.1474  41.2314 14.76937026463894
Epoch (UTC): 17 January 2022 14:19:50
Eccentricity: 0.0008249
inclination: 97.9174°
perigee height: 633 km
apogee height: 645 km
right ascension of ascending node: 73.6057°
argument of perigee: 85.1474°
revolutions per day: 14.76937026
mean anomaly at epoch: 41.2314°
orbit number at epoch: 46389

The dashed part of the orbit path shows where the satellite is in the earth's shadow,  

DLR